Showing default

SJ-26, 64199

Orbit data source: Space-Track

SJ-26, 64199 is a payload satellite owned by CASC (CN) in SSO that was launched on Thu, 29 May 2025 UTC via a CHANG ZHENG 4B launch vehicle from the Jiuquan Satellite Launch Center, China (JSC). Payload-class satellites include a variety of spacecraft equipped with specific instruments for various scientific and technological missions. These include communications satellites like Starlink; space stations such as the ISS; scientific satellites like the Hubble; Earth observation satellites from companies like Planet Labs, Umbra, and HawkEye 360; GPS; miniature CubeSats for education and research; and military/defense satellites.

Loading next visibility...
Identifier
64199, 2025-115A
Orbit
SSO
Country
Flag of CNCN / PRC
Related business
Manufacturer
HARB/DFH
Mission
Operational Defense Imaging
Bus & Motor
CAST-968?, Unknown motor
Mass
~1,500 kg wet, ~1,500 kg dry
Launch date (UTC)
2025-05-29 (1 year ago)
Launch vehicle
CHANG ZHENG 4B
Launch site
Jiuquan Satellite Launch Center, China (JSC)
Object type
Payload
Rocket body
Debris
Shape & HBR
Box + 2 Pan, 6.0 m
Radar Cross Section
13.377 m², Large (>1 m²)

Expand to show TLE details & history
Last TLE update: 9 hours ago

TLE from 9 hours ago
0 SJ-26
1 64199U 25115A   26171.47919280  .00004166  00000-0  17577-3 0  9997
2 64199  97.4552 249.9929 0018216 345.6495  14.4222 15.23705995 58948
Epoch: 2026-06-20T11:30Z
TLE epoch observation values (Epoch: 2026-06-20T11:30:02.257Z)
Latitude
-0.00007°
Longitude
168.79028°
Altitude
485.642 km
Speed
7.629 km/s
True Right ascension
16h 39m 58s
True Declination
0° 00' 00"
Sunlit
Object was in full shadow at epoch
Visualization orbit readout
Latitude
Unknown
Longitude
Unknown
Altitude
Unknown
Speed
Unknown
Apparent Right ascension
Unknown
Apparent Declination
Unknown
Sunlit
N/A
Visualization observer readout
Local Sidereal Time
07:16:55
Azimuth
Unknown
Elevation
Unknown
Doppler factor
Unknown
Orbital elements
Apogee altitude
504.151 km
Perigee altitude
479.123 km
Semi-major axis
6,869.774 km
Eccentricity
0.00182
Inclination
97.4552°
RAAN
249.9929°
Arg. of periapsis
345.6495°
True anomaly
14.4743°
Mean anomaly
14.4222°
Eccentric anomaly
14.44824°
Mean motion
3.81179 °/min
Orbital period
94.44 mins
BSTAR
0.00017577
Loading maneuver chart data...
Computing Atmospheric mass density...
Loading historical data...
Loading historical data...
Loading historical data...
Loading historical data...
Loading historical data...
Loading historical data...
Loading historical data...
Other satellites on launch #115 in the year 2025 (2025-05-29 UTC)

Documentation

Showing up to 5 results
|